Flag for Micronesia Weather past 2 weeks in Colonia, Yap, Micronesia

Now
85 °F

Mostly cloudy.


Feels Like: 96 °F
Forecast: 80 / 82 °F
Wind: 14 mph from West

Location: Yap Island

Current Time: Jul 3, 2015 at 1:33:27 PM

Latest Report: Jul 3, 2015 at 11:54 AM


Visibility: 12 mi

Pressure: 29.77 "Hg

Humidity: 79%

Dew point: 78 °F

Location of ColoniaLocation

Historic Weather in Colonia — Graph

°F

Colonia temperature yesterday

Maximum temperature yesterday: 84 °F (at 8:50 AM)
Minimum temperature yesterday: 77 °F (at 8:50 PM)
Average temperature yesterday: 81 °F

Past Weeks' High & Low Weather Summary

 TemperatureHumidityPressure
High88 °F (Jun 22, 11:54 AM)100% (Jun 28, 5:58 AM)29.93 "Hg (Jun 28, 5:58 AM)
Low76 °F (Jun 28, 3:54 AM)70% (Jun 22, 11:54 AM)29.71 "Hg (Jun 18, 3:51 PM)
Average82 °F86%29.82 "Hg
* Reported Jun 18 11:50 AM — Jul 3 11:54 AM, Colonia, Weather by CustomWeather, © 2015

Note: Actual official high and low records may vary slightly from our data, if they occured in-between our weather recording intervals... More about our weather records

Advertising

Colonia weather history for previous 24 hours

 ConditionsComfort  
Time TempWeatherWind HumidityBarometerVisibility
11:54 AM
Fri, Jul 3
85 °FMostly cloudy.14 mph79%29.77 "Hg12 mi
10:50 AM84 °FMostly cloudy.12 mph78%29.78 "Hg12 mi
9:53 AM82 °FMostly cloudy.14 mph84%29.78 "Hg12 mi
8:50 AM79 °FSprinkles. Mostly cloudy.14 mph92%29.78 "Hg10 mi
7:52 AM79 °FSprinkles. Mostly cloudy.14 mph89%29.79 "Hg8 mi
5:53 AM80 °FOvercast.10 mph85%29.78 "Hg12 mi
4:52 AM80 °FMostly cloudy.12 mph86%29.77 "Hg12 mi
3:51 AM80 °FMostly cloudy.10 mph88%29.78 "Hg12 mi
2:53 AM79 °FSprinkles. Mostly cloudy.12 mph85%29.79 "Hg9 mi
1:50 AM79 °FMostly cloudy.7 mph87%29.80 "Hg12 mi
12:53 AM78 °FMostly cloudy.8 mph87%29.83 "Hg10 mi
11:50 PM
Thu, Jul 2
77 °FSprinkles. Mostly cloudy.10 mph95%29.85 "Hg7 mi
10:53 PM77 °FSprinkles. Mostly cloudy.10 mph94%29.85 "Hg7 mi
9:51 PM78 °FSprinkles. Mostly cloudy.8 mph92%29.85 "Hg7 mi
8:50 PM77 °FSprinkles. Mostly cloudy.8 mph93%29.83 "Hg5 mi
7:53 PM78 °FSprinkles. Mostly cloudy.8 mph95%29.81 "Hg5 mi
6:50 PM78 °FSprinkles. Mostly cloudy.12 mph94%29.79 "Hg4 mi
5:50 PM79 °FSprinkles. Mostly cloudy.14 mph91%29.75 "Hg6 mi
4:51 PM78 °FSprinkles. Mostly cloudy.9 mph89%29.75 "Hg6 mi
3:51 PM80 °FLots of rain. Mostly cloudy.8 mph92%29.75 "Hg3 mi
3:02 PM79 °FSprinkles. Mostly cloudy.9 mph89%29.76 "Hg5 mi
2:52 PM78 °FLots of rain. Mostly cloudy.12 mph93%29.75 "Hg2 mi
1:51 PM83 °FSprinkles. Mostly cloudy.9 mph81%29.78 "Hg10 mi
Weather by CustomWeather, © 2015

See weather overviewHow to use our weather pages